Find Starlink 30229

NORAD ID: 57461 Int'l Des: 2023-107 Owner: SPXS Country: US Constellation: starlink operational
LEOCIRCULAR

当前视图

正在加载3D地球...

关于 Starlink 30229

正在加载描述...

即将过境

Passes for default location (London). Set your location on the main map for personalized predictions.

高度历史

Loading altitude history...

两行轨道根数

1 57461U 23107E 26159.27189268 .00000499 00000-0 27644-4 0 9991
2 57461 43.0016 191.9509 0001084 271.4866 88.5861 15.27574957158912
Epoch: Jun 8, 2026 • Age: 11 hours

当前状态

高度 486.1 km
速度 7.63 km/s
星下点 39.57°N, 86.81°E
发射日期 Jul 28, 2023
运行时间 2.8 years
类型 internet

技术详情

分类 Payload
质量 730.00 kg
干质量 700.00 kg
总质量 730.00 kg
长度 0.30 m
直径 4.10 m
跨度 29.00 m
形状 Box + pan
制造商 SPXS
平台类型 Starlink V2M
阶段状态 In Orbit
所有者/国家 SPXS/US

Most Searched